Regional Weather Roundup
Issued by NWS Sioux Falls, SD

Home | Current Version | Previous Version | Text Only | Print | Product List | Glossary On
Versions: 1 2 3 4 5 6 7 8 9 10 11 12 13 14 15 16 17 18 19 20 21 22 23 24 25 26 27 28 29 30 31 32 33 34 35 36 37 38 39 40 41 42 43 44 45 46 47 48 49 50
000
ASUS43 KFSD 230810
RWRFSD

WEATHER ROUNDUP FOR SE SOUTH DAKOTA/SW MINNESOTA/NW IOWA
NATIONAL WEATHER SERVICE SIOUX FALLS SD
300 AM CDT WED JUL 23 2014

NOTE: "FAIR" INDICATES FEW OR NO CLOUDS BELOW 12,000 FEET WITH NO
SIGNIFICANT WEATHER AND OR OBSTRUCTIONS TO VISIBILITY.


SDZ038>040-050-052>070-230900-
SOUTHEAST SOUTH DAKOTA

CITY           SKY/WX    TMP DP  RH WIND       PRES   REMARKS
CHAMBERLAIN    MOCLDY    64  58  82 SE6       30.24S
HURON          CLEAR     63  58  83 E7        30.23F
MADISON        FAIR      59  59 100 NE5       30.26F
MITCHELL       CLEAR     63  60  90 E6        30.24S
SIOUX FALLS    PTCLDY    61  56  83 N6        30.24F
WINNER         FAIR      69  58  67 SE7       30.23S
YANKTON        PTCLDY    63  57  82 NE6       30.23S
$$

MNZ071-072-080-081-089-090-097-098-230900-
SOUTHWEST MINNESOTA

CITY           SKY/WX    TMP DP  RH WIND       PRES   REMARKS
FAIRMONT       CLEAR     61  54  77 NW6       30.21R
JACKSON        CLEAR     59  54  82 N3        30.22F
LUVERNE        PTCLDY    64  55  72 N3        30.25F
MARSHALL       CLEAR     57  52  82 NW8       30.24S
MONTEVIDEO     CLEAR     61  54  77 N6        30.26R
PIPESTONE      PTCLDY    61  54  77 CALM      30.26S
REDWOOD FALLS  CLEAR     63  57  81 N6        30.22S
TRACY          CLEAR     60  56  87 NW6       30.24F
WINDOM         CLEAR     59  55  88 N7        30.23F
WORTHINGTON    CLEAR     57  54  88 N8        30.25S
$$

IAZ001>003-012>014-020>022-031-032-NEZ013-014-SDZ071-230900-
NORTHWEST IOWA

CITY           SKY/WX    TMP DP  RH WIND       PRES   REMARKS
CHEROKEE       CLEAR     61  58  91 CALM      30.22F
DENISON        PTCLDY    64  59  82 NE6       30.19S
ESTHERVILLE    CLEAR     60  55  83 N9        30.21S
LE MARS        PTCLDY    64  59  82 N7        30.23S
ORANGE CITY    PTCLDY    64  55  72 NE9       30.23F
SHELDON        CLEAR     57  55  94 N5        30.22F
SIOUX CITY     CLEAR     65  58  78 N5        30.21F
SPENCER        CLEAR     59  55  87 N7        30.22F
STORM LAKE     CLEAR     63  59  88 N8        30.22S
$$

ABBREVIATIONS USED IN REMARKS
   TC - TEMPERATURE IN CELSIUS
  WCI - WIND CHILL INDEX
   HX - HEAT INDEX
  VSB - VISIBILITY




USA.gov is the U.S. government's official web portal to all federal, state and local government web resources and services.